Change the Weather History Date:

Monday, March 10, 2014

  Actual Average (KMTO) Record (KMTO)
Temperature  
Mean Temperature 52 °F 40 °F  
Max Temperature 67 °F 50 °F 79 °F (1990)
Min Temperature 37 °F 31 °F 7 °F (1960)
Degree Days  
Heating Degree Days 13 25  
Month to date heating degree days 264  
Since 1 July heating degree days 4468  
Cooling Degree Days 0 0  
Month to date cooling degree days 0  
Year to date cooling degree days 0  
Growing Degree Days 2 (Base 50)    
Moisture  
Dew Point 35 °F    
Average Humidity 58    
Maximum Humidity 85    
Minimum Humidity 31    
Precipitation  
Precipitation 0.00 in 0.06 in 1.50 in (1952)
Month to date precipitation 0.60  
Year to date precipitation 4.58  
Sea Level Pressure  
Sea Level Pressure 29.84 in    
Wind  
Wind Speed 8 mph (SSW)    
Max Wind Speed 15 mph    
Max Gust Speed 21 mph    
Visibility 8 miles    
Events      
T = Trace of Precipitation, MM = Missing Value Source: NWS Daily Summary

Daily Weather History Graph

Daily Weather History Graph

Search for Another Location

Airport or City:

Trip Planner

Search our weather history database for the weather conditions in past years. The results will help you decide how hot, cold, wet, or windy it might be!

Date:

Astronomy

Mar. 10, 2014 Rise Set
Actual Time 7:13 AM CDT 6:56 PM CDT
Civil Twilight 6:46 AM CDT 7:22 PM CDT
Nautical Twilight 6:15 AM CDT 7:53 PM CDT
Astronomical Twilight 5:44 AM CDT 8:24 PM CDT
Moon 1:41 PM CDT (3/10) 3:22 AM CDT (3/10)
Length of Visible Light 12h 36m
Length of Day
11h 42m
Waxing Gibbous, 70% of the Moon is Illuminated
Mar 10
Waxing Gibbous
Mar 16
Full
Mar 23
Last Quarter
Mar 30
New
Apr 7
First Quarter

Hourly Weather History & Observations

Time (CDT) Temp. Windchill Dew Point Humidity Pressure Visibility Wind Dir Wind Speed Gust Speed Precip Events Conditions
12:15 AM 38.3 °F 32.5 °F 29.7 °F 71% 30.01 in 10.0 mi SSW 8.1 mph - N/A   Clear
12:35 AM 38.5 °F 32.1 °F 30.2 °F 72% 29.99 in 7.0 mi SSW 9.2 mph - N/A   Clear
12:55 AM 38.1 °F 31.7 °F 30.6 °F 74% 29.99 in 7.0 mi SSW 9.2 mph - N/A   Clear
1:15 AM 38.1 °F 32.3 °F 30.6 °F 74% 29.98 in 7.0 mi SSW 8.1 mph - N/A   Clear
1:35 AM 38.1 °F 32.3 °F 30.7 °F 75% 29.98 in 7.0 mi SSW 8.1 mph - N/A   Clear
1:55 AM 37.9 °F 32.7 °F 30.4 °F 74% 29.98 in 7.0 mi SSW 6.9 mph - N/A   Clear
2:15 AM 38.1 °F 32.9 °F 30.2 °F 73% 29.97 in 7.0 mi SSW 6.9 mph - N/A   Clear
2:35 AM 37.9 °F 33.5 °F 30.2 °F 74% 29.97 in 7.0 mi SSW 5.8 mph - N/A   Clear
2:55 AM 37.9 °F 32.1 °F 30.6 °F 75% 29.96 in 7.0 mi SSW 8.1 mph - N/A   Clear
3:15 AM 37.6 °F 33.1 °F 30.6 °F 76% 29.96 in 7.0 mi SSW 5.8 mph - N/A   Clear
3:35 AM 38.1 °F 32.9 °F 31.1 °F 76% 29.94 in 7.0 mi SSW 6.9 mph - N/A   Clear
3:55 AM 38.7 °F 33.6 °F 31.6 °F 76% 29.93 in 7.0 mi SSW 6.9 mph - N/A   Clear
4:15 AM 37.9 °F 32.1 °F 31.8 °F 79% 29.92 in 7.0 mi SSW 8.1 mph - N/A   Clear
4:35 AM 38.3 °F 32.5 °F 32.0 °F 78% 29.92 in 7.0 mi SSW 8.1 mph - N/A   Clear
4:55 AM 38.5 °F 32.7 °F 32.2 °F 78% 29.91 in 7.0 mi SSW 8.1 mph - N/A   Clear
5:15 AM 38.5 °F 32.7 °F 32.2 °F 78% 29.90 in 5.0 mi SSW 8.1 mph - N/A   Haze
5:35 AM 38.3 °F 32.5 °F 32.4 °F 79% 29.90 in 5.0 mi SSW 8.1 mph - N/A   Haze
5:55 AM 38.5 °F 34.1 °F 32.7 °F 80% 29.90 in 5.0 mi SSW 5.8 mph - N/A   Haze
6:15 AM 37.9 °F 32.7 °F 32.7 °F 81% 29.90 in 5.0 mi SSW 6.9 mph - N/A   Haze
6:35 AM 37.8 °F 33.3 °F 32.9 °F 83% 29.90 in 5.0 mi SSW 5.8 mph - N/A   Haze
6:55 AM 38.1 °F 33.7 °F 33.3 °F 83% 29.89 in 5.0 mi SSW 5.8 mph - N/A   Haze
7:15 AM 37.8 °F 32.5 °F 33.6 °F 85% 29.89 in 3.0 mi SSW 6.9 mph - N/A   Clear
7:35 AM 38.5 °F 34.1 °F 34.2 °F 84% 29.89 in 3.0 mi SSW 5.8 mph - N/A   Clear
7:55 AM 39.4 °F 33.8 °F 34.7 °F 83% 29.89 in 4.0 mi SSW 8.1 mph - N/A   Clear
8:15 AM 40.6 °F 34.8 °F 35.1 °F 80% 29.89 in 4.0 mi SW 9.2 mph - N/A   Haze
8:35 AM 41.7 °F 36.1 °F 35.1 °F 77% 29.90 in 4.0 mi SW 9.2 mph - N/A   Haze
8:55 AM 42.8 °F 39.3 °F 35.6 °F 76% 29.90 in 5.0 mi SW 5.8 mph - N/A   Haze
9:15 AM 45.3 °F 40.1 °F 36.9 °F 72% 29.90 in 5.0 mi SW 10.4 mph - N/A   Haze
9:30 AM 46.8 °F - 36.9 °F 68% 29.90 in 5.0 mi SW 12.7 mph 16.1 mph N/A   Haze
9:55 AM 48.7 °F - 37.4 °F 65% 29.89 in 7.0 mi SW 9.2 mph 17.3 mph N/A   Clear
10:15 AM 51.3 °F - 37.0 °F 58% 29.88 in 7.0 mi SW 9.2 mph 17.3 mph N/A   Clear
10:35 AM 52.3 °F - 36.9 °F 56% 29.88 in 10.0 mi WSW 12.7 mph 18.4 mph N/A   Clear
10:55 AM 53.1 °F - 36.5 °F 53% 29.88 in 10.0 mi SW 11.5 mph - N/A   Clear
11:15 AM 54.5 °F - 36.7 °F 51% 29.87 in 7.0 mi SW 11.5 mph - N/A   Clear
11:35 AM 56.5 °F - 36.7 °F 48% 29.87 in 7.0 mi SW 11.5 mph - N/A   Clear
11:55 AM 58.1 °F - 36.1 °F 44% 29.87 in 10.0 mi SW 11.5 mph 19.6 mph N/A   Clear
12:15 PM 59.5 °F - 36.0 °F 41% 29.86 in 10.0 mi SW 15.0 mph - N/A   Clear
12:35 PM 59.9 °F - 36.3 °F 41% 29.84 in 10.0 mi SW 11.5 mph - N/A   Clear
12:55 PM 60.4 °F - 37.0 °F 42% 29.83 in 7.0 mi SW 10.4 mph - N/A   Clear
1:15 PM 61.0 °F - 36.3 °F 40% 29.83 in 10.0 mi SW 12.7 mph - N/A   Clear
1:35 PM 61.2 °F - 36.0 °F 39% 29.81 in 10.0 mi SW 12.7 mph 18.4 mph N/A   Clear
1:55 PM 63.7 °F - 35.2 °F 35% 29.80 in 10.0 mi SW 13.8 mph 17.3 mph N/A   Clear
2:10 PM 65.8 °F - 35.4 °F 32% 29.78 in 10.0 mi SSW 12.7 mph 18.4 mph N/A   Clear
2:35 PM 65.7 °F - 36.1 °F 34% 29.77 in 10.0 mi SSW 13.8 mph 20.7 mph N/A   Clear
2:55 PM 65.5 °F - 35.2 °F 33% 29.77 in 10.0 mi SW 13.8 mph 20.7 mph N/A   Clear
3:15 PM 64.8 °F - 35.6 °F 34% 29.76 in 10.0 mi SW 13.8 mph 18.4 mph N/A   Clear
3:35 PM 67.1 °F - 35.6 °F 31% 29.75 in 10.0 mi SSW 11.5 mph 18.4 mph N/A   Clear
3:55 PM 66.6 °F - 35.6 °F 32% 29.75 in 10.0 mi SSW 11.5 mph - N/A   Clear
4:15 PM 66.4 °F - 36.3 °F 33% 29.75 in 10.0 mi WSW 13.8 mph 18.4 mph N/A   Clear
4:35 PM 65.5 °F - 36.3 °F 34% 29.75 in 10.0 mi SW 9.2 mph - N/A   Clear
4:55 PM 65.1 °F - 36.9 °F 35% 29.74 in 10.0 mi SSW 8.1 mph - N/A   Clear
5:15 PM 64.6 °F - 38.1 °F 38% 29.74 in 10.0 mi SSW 8.1 mph - N/A   Clear
5:35 PM 64.4 °F - 37.9 °F 38% 29.73 in 10.0 mi SSW 6.9 mph - N/A   Clear
5:55 PM 64.8 °F - 37.6 °F 37% 29.73 in 10.0 mi South 6.9 mph - N/A   Clear
6:15 PM 64.4 °F - 37.9 °F 38% 29.73 in 10.0 mi SSW 9.2 mph - N/A   Clear
6:35 PM 63.5 °F - 37.8 °F 39% 29.73 in 10.0 mi SSW 8.1 mph - N/A   Clear
6:55 PM 61.5 °F - 37.4 °F 41% 29.73 in 10.0 mi SSW 6.9 mph - N/A   Clear
7:15 PM 60.4 °F - 37.4 °F 42% 29.73 in 10.0 mi SSW 5.8 mph - N/A   Clear
7:35 PM 59.9 °F - 36.9 °F 42% 29.74 in 10.0 mi SSW 4.6 mph - N/A   Clear
7:55 PM 58.8 °F - 37.2 °F 45% 29.74 in 10.0 mi South 5.8 mph - N/A   Clear
8:15 PM 58.3 °F - 37.4 °F 46% 29.74 in 10.0 mi South 5.8 mph - N/A   Clear
8:35 PM 57.6 °F - 37.2 °F 47% 29.74 in 10.0 mi South 4.6 mph - N/A   Clear
8:55 PM 57.4 °F - 37.6 °F 48% 29.75 in 10.0 mi South 6.9 mph - N/A   Clear
9:15 PM 56.7 °F - 38.1 °F 50% 29.75 in 10.0 mi South 8.1 mph - N/A   Clear
9:35 PM 55.8 °F - 38.3 °F 52% 29.75 in 10.0 mi South 4.6 mph - N/A   Clear
9:55 PM 54.7 °F - 38.8 °F 55% 29.75 in 10.0 mi SSW 5.8 mph - N/A   Clear
10:15 PM 53.2 °F - 39.2 °F 59% 29.75 in 10.0 mi SW 4.6 mph - N/A   Clear
10:35 PM 50.0 °F - 38.8 °F 66% 29.76 in 10.0 mi West 3.5 mph - N/A   Clear
10:55 PM 49.3 °F - 39.6 °F 69% 29.75 in 10.0 mi SW 3.5 mph - N/A   Clear
11:15 PM 49.8 °F - 39.9 °F 69% 29.75 in 10.0 mi SW 3.5 mph - N/A   Clear
11:35 PM 50.0 °F - 40.3 °F 69% 29.74 in 10.0 mi SSW 4.6 mph - N/A   Clear
11:55 PM 50.7 °F - 41.0 °F 69% 29.73 in 10.0 mi SSW 3.5 mph - N/A   Clear